カタログに戻る

STARLINK-3860

運用中通信VLEO
NORAD 52477·PAYLOAD·🇺🇸 United States

打ち上げ May 6, 2022 から Cape Canaveral Space Force Station

Loading…

次のパス (今後24時間)

TLE

最新Source: CelesTrak SupGP

元期: Sep 15, 2026, 02:39 UTC

1 52477C 22049AC  26258.11090278 -.00010895  00000+0 -32183-3 0  2585
2 52477  53.1572 268.5619 0001292  93.9627 157.8800 15.34401197    12

AllMySatでSTARLINK-3860をリアルタイム追跡

Download on the App Store